Regional Weather Roundup
Issued by NWS

Home | Current Version | Previous Version | Text Only | Print | Product List | Glossary On
Versions: 1 2 3 4 5 6 7 8 9 10 11 12 13 14 15 16 17 18 19 20 21 22 23 24 25 26 27 28 29 30 31 32 33 34 35 36 37 38 39 40 41 42 43 44 45 46 47 48 49 50
000
ASUS43 KMKX 190311
RWRWI

WISCONSIN REGIONAL WEATHER ROUNDUP
NATIONAL WEATHER SERVICE MILWAUKEE/SULLIVAN WI
1000 PM CDT SAT APR 18 2015

NOTE: "FAIR" INDICATES FEW OR NO CLOUDS BELOW 12,000 FEET WITH NO
SIGNIFICANT WEATHER AND/OR OBSTRUCTIONS TO VISIBILITY.

WIZ001-002-006>008-014>016-023>028-190400-
NORTHWEST WISCONSIN

CITY           SKY/WX    TMP DP  RH WIND       PRES   REMARKS
SUPERIOR ARPT  MOCLDY    37  32  81 E14G20    30.05F WCI  29
ASHLAND        MOCLDY    33  31  92 CALM      30.04F
HAYWARD        CLOUDY    48  32  53 NE7       30.00F
SIREN          CLOUDY    52  34  50 NE6       29.97F
CUMBERLAND     CLOUDY    55  27  33 SE9       29.98F
RICE LAKE      CLOUDY    57  25  29 E7        30.00F
CHETEK         CLOUDY    57  24  28 E7G17     29.99F
LADYSMITH      CLOUDY    56  21  25 E9        30.02F
EAU CLAIRE     CLOUDY    57  25  29 E13       29.97F
MENOMONIE      CLOUDY    59  29  31 E10       29.97S
NEW RICHMOND   CLOUDY    59  29  32 E8        29.96R
OSCEOLA        CLOUDY    59  33  37 E9        29.98R
$$

WIZ003>005-009-010-017-018-190400-
NORTH CENTRAL WISCONSIN

CITY           SKY/WX    TMP DP  RH WIND       PRES   REMARKS
MANITOWISH WTR MOCLDY    52  16  24 SE7       30.05F
ARBOR VITAE    HAZE      52  10  18 SE12G17   30.06F VSB 3/4
WOODRUFF       HAZE      52  10  18 SE12G17   30.06F VSB 3/4
RHINELANDER    MOCLDY    48  13  24 E10       30.08F
EAGLE RIVER    PTCLDY    49  11  22 SE8       30.07F
LAND O LAKES   PTCLDY    49  16  26 SE5       30.09F
PHILLIPS       CLOUDY    53  14  21 SE8       30.03F
TOMAHAWK       MOCLDY    50  12  22 CALM      30.06F
MEDFORD        CLOUDY    50  17  27 E12G17    30.03F
MERRILL        MOCLDY    50  17  26 SE7       30.07S
$$

WIZ029-030-035-036-043>047-190400-
CENTRAL WISCONSIN

CITY           SKY/WX    TMP DP  RH WIND       PRES   REMARKS
WAUSAU         PTCLDY    51  14  22 E14G23    30.04F
MOSINEE        CLEAR     48  16  27 E14G20    30.06F
MARSHFIELD     PTCLDY    51  19  28 E15       30.02F
STEVENS POINT  PTCLDY    48  17  29 E12G20    30.06S
WAUPACA        CLEAR     51  23  33 NE6       30.08F
WAUTOMA        CLEAR     51  24  35 NE9       30.06S
WISC RAPIDS    CLEAR     52  16  24 E12G20    30.04F
CAMP DOUGLAS   MOCLDY    54  27  35 E13       30.01S
$$

WIZ011>013-019>022-031-037>040-048>050-190400-
NORTHEAST WISCONSIN

CITY           SKY/WX    TMP DP  RH WIND       PRES   REMARKS
ANTIGO         PTCLDY    46  17  31 E16G22    30.08F
SHAWANO        PTCLDY    50  28  43 E9        30.10F
OCONTO         CLEAR     47  29  50 NE7       30.11S
STURGEON BAY   CLEAR     48  25  40 E13       30.13F
GREEN BAY      CLEAR     47  33  58 NE13      30.09F
MANITOWOC      CLEAR     44  30  57 NE6       30.08F
APPLETON       PTCLDY    48  27  43 NE9       30.07F
CLINTONVILLE   PTCLDY    46  21  36 NE7       30.09F
OSHKOSH        CLEAR     49  28  44 NE10      30.06F
$$

WIZ032>034-041-042-053>061-190400-
SOUTHWEST WISCONSIN

CITY           SKY/WX    TMP DP  RH WIND       PRES   REMARKS
LA CROSSE      CLOUDY    62  26  25 SE8G17    29.95F
SPARTA         CLOUDY    57  18  22 E12       30.00S
VIROQUA        CLOUDY    56  28  34 E16G22    29.96F
BOSCOBEL       CLOUDY    63  30  28 NE8       29.96S
PRAIRIE DU CHI CLOUDY    65  26  23 E14G22    29.92S
PLATTEVILLE    CLOUDY    60  35  39 E10       29.95S
$$

WIZ056-057-062-063-064-067-068-190400-
SOUTH CENTRAL WISCONSIN

CITY           SKY/WX    TMP DP  RH WIND       PRES   REMARKS
REEDSBURG      PTCLDY    54  29  38 E7        30.01R
BARABOO/DELLS  PTCLDY    53  27  36 E9        30.03R
LONE ROCK      MOCLDY    59  31  34 E13       29.98S
MINERAL POINT  MOCLDY    61  30  31 E16G23    29.97S
MADISON        MOCLDY    52  32  46 E9        30.03R
MIDDLETON      CLOUDY    56  31  39 E12       30.02S
WATERTOWN      CLEAR     48  31  51 E8        30.04R
MONROE         CLOUDY    54  32  43 E15       29.99S
JANESVILLE     MOCLDY    52  28  40 E10       30.01S
$$

WIZ051-052-058>065-066-070>072-190400-
SOUTHEAST WISCONSIN

CITY           SKY/WX    TMP DP  RH WIND       PRES   REMARKS
MILWAUKEE      PTCLDY    42  32  67 NE9       30.08S
WAUKESHA       CLEAR     45  30  57 E10       30.06F
MILWAUKEE/TIMM CLEAR     45  30  57 NE6       30.08S
RACINE         CLEAR     41  33  73 N7        30.08S
BURLINGTON     CLEAR     44  32  62 NE7       30.05S
KENOSHA        CLEAR     43  34  70 NE6       30.05S
FOND DU LAC    CLEAR     48  25  40 E10       30.07R
SHEBOYGAN      CLEAR     45  30  55 NE14      30.08R
WEST BEND      CLEAR     43  28  56 E8        30.07S
JUNEAU         CLEAR     48  29  47 E8        30.06R
$$

LSZ147-162-190400-
LAKE SUPERIOR

STATION/POSITION TIME  TEMP    WIND        PRES    WAVE
                       AIR SEA DIR/SP/G            HT/PER
                 (UTC) (F)     (DEG/KT/KT) (MB)    (FT/S)
DEVILS ISLAND    0300   38      70/ 13/ 16 1018.1F
PORT WING        0240   37      50/ 13/ 16 1017.6F
SAXON HARBOR     0200   37        CALM     1016.9F
$$

LMZ867-665-643>646-190400-
LAKE MICHIGAN

STATION/POSITION TIME  TEMP    WIND        PRES    WAVE
                       AIR SEA DIR/SP/G            HT/PER
                 (UTC) (F)     (DEG/KT/KT) (MB)    (FT/S)
CHAMBERS ISLAND  0200   46      40/ 10/ 13 1020.3S
NORTHPORT PIER   0200   49      60/ 13/ 16 1020.7R
SISTER BAY       0247   50     100/  7/ 16   N/A
KEWAUNEE LAKESHO 0200   44      30/ 14/ 19 1018.7F
SHEBOYGAN LAKESH 0300   42      10/ 10/ 12 1019.2R
PORT WASHINGTON  0200   49      30/  9/ 19 1019.0R
MILWAUKEE LAKESH 0200   43      20/ 18/ 22   N/A
KENOSHA   LAKESH 0300   46      20/ 13/ 15 1017.6R
$$

TC  - TEMPERATURE IN CELSIUS
VSB - VISIBILITY IN STATUTE MILES
WCI - WIND CHILL INDEX
HX  - HEAT INDEX




USA.gov is the U.S. government's official web portal to all federal, state and local government web resources and services.